JJN YSCB-YSBK

Flight info

Callsign JJN
Flight time 0h 53m
Altitude 9500
Route MTM DCT BKM DCT RCSE DCT YSCB
Aircraft B58T/L-SDFGRY/C

Departure

Time 2026-04-26 02:42
Airport Canberra Airport (YSCB)

Arrival

Time 2026-04-26 03:36
Airport Sydney Bankstown Airport (YSBK)
Time Latitude Longitude Altitude Speed Heading
2026-04-26 02:26 -35.30409 149.18718 1874 ft 0 kts 309°
2026-04-26 02:33 -35.30401 149.18705 1874 ft 6 kts 310°
2026-04-26 02:33 -35.30361 149.18654 1874 ft 7 kts 345°
2026-04-26 02:33 -35.30328 149.18679 1874 ft 6 kts 40°
2026-04-26 02:33 -35.30328 149.18725 1874 ft 9 kts 131°
2026-04-26 02:34 -35.30383 149.18805 1874 ft 15 kts 129°
2026-04-26 02:34 -35.30444 149.18889 1874 ft 11 kts 137°
2026-04-26 02:34 -35.30504 149.18967 1874 ft 15 kts 128°
2026-04-26 02:34 -35.30578 149.19075 1874 ft 18 kts 130°
2026-04-26 02:35 -35.30660 149.19191 1874 ft 19 kts 124°
2026-04-26 02:35 -35.30705 149.19277 1874 ft 12 kts 132°
2026-04-26 02:35 -35.30766 149.19363 1874 ft 15 kts 130°
2026-04-26 02:35 -35.30837 149.19468 1874 ft 17 kts 133°
2026-04-26 02:36 -35.30914 149.19580 1874 ft 11 kts 129°
2026-04-26 02:36 -35.30970 149.19661 1874 ft 14 kts 131°
2026-04-26 02:36 -35.31032 149.19750 1874 ft 12 kts 130°
2026-04-26 02:36 -35.31081 149.19827 1874 ft 7 kts 110°
2026-04-26 02:37 -35.31081 149.19852 1874 ft 0 kts 73°
2026-04-26 02:41 -35.31079 149.19858 1874 ft 4 kts 66°
2026-04-26 02:41 -35.31018 149.19898 1874 ft 8 kts 333°
2026-04-26 02:41 -35.30976 149.19841 1874 ft 30 kts 309°
2026-04-26 02:42 -35.30497 149.19137 1922 ft 111 kts 310°
2026-04-26 02:42 -35.29995 149.18405 2301 ft 111 kts 310°
2026-04-26 02:42 -35.29657 149.17911 2571 ft 113 kts 310°
2026-04-26 02:42 -35.29367 149.17066 2945 ft 119 kts 262°
2026-04-26 02:43 -35.30965 149.16188 3501 ft 141 kts 186°
2026-04-26 02:43 -35.31965 149.16202 3708 ft 146 kts 187°
2026-04-26 02:43 -35.33014 149.16091 3815 ft 153 kts 188°
2026-04-26 02:44 -35.34070 149.15980 3955 ft 155 kts 188°
2026-04-26 02:44 -35.35146 149.15730 4005 ft 161 kts 200°
2026-04-26 02:44 -35.36047 149.14977 4007 ft 159 kts 240°
2026-04-26 02:44 -35.36247 149.13672 4006 ft 160 kts 281°
2026-04-26 02:45 -35.35647 149.12556 4007 ft 163 kts 326°
2026-04-26 02:45 -35.34588 149.12123 4012 ft 162 kts 346°
2026-04-26 02:45 -35.33479 149.11884 4008 ft 161 kts 348°
2026-04-26 02:45 -35.32358 149.11645 4009 ft 165 kts 348°
2026-04-26 02:46 -35.31210 149.11399 4010 ft 168 kts 347°
2026-04-26 02:46 -35.30054 149.11159 4008 ft 172 kts 348°
2026-04-26 02:46 -35.28855 149.10912 4010 ft 175 kts 347°
2026-04-26 02:46 -35.27648 149.10658 4011 ft 176 kts 347°
2026-04-26 02:47 -35.26432 149.10596 4002 ft 180 kts 12°
2026-04-26 02:47 -35.25362 149.11431 4001 ft 186 kts 40°
2026-04-26 02:47 -35.24445 149.12530 3999 ft 184 kts 41°
2026-04-26 02:47 -35.23546 149.13608 3997 ft 183 kts 43°
2026-04-26 02:48 -35.22942 149.14958 3991 ft 185 kts 81°
2026-04-26 02:48 -35.23214 149.16477 3986 ft 187 kts 123°
2026-04-26 02:48 -35.24235 149.17406 4013 ft 184 kts 166°
2026-04-26 02:48 -35.25420 149.17721 4293 ft 169 kts 169°
2026-04-26 02:49 -35.26190 149.18100 4497 ft 166 kts 154°
2026-04-26 02:49 -35.27160 149.18837 4788 ft 163 kts 149°
2026-04-26 02:49 -35.27956 149.19853 5083 ft 169 kts 120°
2026-04-26 02:49 -35.28264 149.21224 5371 ft 170 kts 91°
2026-04-26 02:50 -35.28012 149.22635 5674 ft 171 kts 62°
2026-04-26 02:50 -35.27297 149.23757 5970 ft 168 kts 44°
2026-04-26 02:50 -35.26496 149.24815 6285 ft 170 kts 46°
2026-04-26 02:50 -35.25701 149.25881 6582 ft 171 kts 46°
2026-04-26 02:51 -35.24897 149.26952 6878 ft 171 kts 46°
2026-04-26 02:51 -35.24099 149.28012 7127 ft 171 kts 46°
2026-04-26 02:51 -35.23292 149.29087 7348 ft 172 kts 45°
2026-04-26 02:51 -35.22480 149.30166 7525 ft 172 kts 45°
2026-04-26 02:52 -35.21670 149.31241 7732 ft 170 kts 46°
2026-04-26 02:52 -35.20881 149.32291 7920 ft 168 kts 45°
2026-04-26 02:52 -35.20090 149.33340 8111 ft 166 kts 46°
2026-04-26 02:52 -35.19309 149.34376 8239 ft 168 kts 45°
2026-04-26 02:53 -35.18514 149.35435 8356 ft 168 kts 45°
2026-04-26 02:53 -35.17727 149.36481 8482 ft 168 kts 45°
2026-04-26 02:53 -35.16932 149.37535 8601 ft 167 kts 45°
2026-04-26 02:53 -35.16157 149.38561 8721 ft 165 kts 45°
2026-04-26 02:54 -35.15377 149.39594 8842 ft 165 kts 45°
2026-04-26 02:54 -35.14603 149.40623 8967 ft 163 kts 45°
2026-04-26 02:54 -35.13832 149.41644 9080 ft 162 kts 45°
2026-04-26 02:54 -35.13065 149.42660 9151 ft 163 kts 45°
2026-04-26 02:55 -35.12308 149.43661 9219 ft 162 kts 46°
2026-04-26 02:55 -35.11541 149.44678 9296 ft 161 kts 45°
2026-04-26 02:55 -35.10785 149.45679 9365 ft 158 kts 45°
2026-04-26 02:55 -35.10050 149.46652 9441 ft 156 kts 45°
2026-04-26 02:56 -35.09304 149.47636 9453 ft 159 kts 45°
2026-04-26 02:56 -35.08553 149.48630 9451 ft 160 kts 45°
2026-04-26 02:56 -35.07799 149.49628 9449 ft 161 kts 45°
2026-04-26 02:56 -35.07035 149.50640 9448 ft 161 kts 45°
2026-04-26 02:57 -35.06275 149.51644 9446 ft 160 kts 45°
2026-04-26 02:57 -35.05524 149.52632 9448 ft 161 kts 46°
2026-04-26 02:57 -35.04764 149.53639 9450 ft 161 kts 46°
2026-04-26 02:57 -35.04009 149.54635 9447 ft 161 kts 46°
2026-04-26 02:58 -35.03242 149.55648 9452 ft 161 kts 46°
2026-04-26 02:58 -35.02481 149.56650 9455 ft 161 kts 45°
2026-04-26 02:58 -35.01726 149.57647 9495 ft 159 kts 46°
2026-04-26 02:58 -35.00970 149.58645 9489 ft 160 kts 46°
2026-04-26 02:59 -35.00225 149.59625 9498 ft 159 kts 46°
2026-04-26 02:59 -34.99474 149.60615 9493 ft 158 kts 46°
2026-04-26 02:59 -34.98731 149.61594 9494 ft 158 kts 46°
2026-04-26 02:59 -34.97979 149.62585 9495 ft 158 kts 46°
2026-04-26 03:00 -34.97228 149.63575 9498 ft 159 kts 46°
2026-04-26 03:00 -34.96486 149.64553 9496 ft 158 kts 46°
2026-04-26 03:00 -34.95740 149.65534 9495 ft 157 kts 46°
2026-04-26 03:00 -34.94993 149.66515 9495 ft 158 kts 46°
2026-04-26 03:01 -34.94251 149.67493 9498 ft 157 kts 46°
2026-04-26 03:01 -34.93501 149.68477 9498 ft 157 kts 46°
2026-04-26 03:01 -34.92763 149.69448 9501 ft 157 kts 46°
2026-04-26 03:01 -34.92015 149.70429 9498 ft 158 kts 46°
2026-04-26 03:02 -34.91266 149.71415 9501 ft 158 kts 46°
2026-04-26 03:02 -34.90517 149.72400 9495 ft 158 kts 46°
2026-04-26 03:02 -34.89777 149.73370 9496 ft 158 kts 46°
2026-04-26 03:02 -34.89028 149.74355 9494 ft 158 kts 46°
2026-04-26 03:03 -34.88280 149.75336 9493 ft 158 kts 46°
2026-04-26 03:03 -34.87536 149.76311 9499 ft 158 kts 46°
2026-04-26 03:03 -34.86787 149.77293 9498 ft 158 kts 46°
2026-04-26 03:03 -34.86035 149.78278 9499 ft 158 kts 46°
2026-04-26 03:04 -34.85294 149.79249 9499 ft 158 kts 46°
2026-04-26 03:04 -34.84545 149.80233 9498 ft 158 kts 46°
2026-04-26 03:04 -34.83796 149.81214 9499 ft 158 kts 46°
2026-04-26 03:04 -34.83054 149.82185 9500 ft 158 kts 46°
2026-04-26 03:05 -34.82303 149.83169 9500 ft 158 kts 46°
2026-04-26 03:05 -34.81551 149.84152 9498 ft 158 kts 46°
2026-04-26 03:05 -34.80803 149.85132 9492 ft 158 kts 46°
2026-04-26 03:05 -34.80063 149.86099 9494 ft 158 kts 46°
2026-04-26 03:06 -34.79312 149.87081 9497 ft 158 kts 46°
2026-04-26 03:06 -34.78561 149.88064 9496 ft 158 kts 46°
2026-04-26 03:06 -34.77816 149.89036 9498 ft 158 kts 46°
2026-04-26 03:06 -34.77068 149.90014 9495 ft 158 kts 46°
2026-04-26 03:07 -34.76327 149.90983 9500 ft 158 kts 46°
2026-04-26 03:07 -34.75577 149.91962 9495 ft 158 kts 46°
2026-04-26 03:07 -34.74828 149.92940 9498 ft 158 kts 46°
2026-04-26 03:07 -34.74077 149.93920 9499 ft 158 kts 46°
2026-04-26 03:08 -34.73334 149.94889 9500 ft 158 kts 46°
2026-04-26 03:08 -34.72582 149.95870 9498 ft 158 kts 46°
2026-04-26 03:08 -34.71841 149.96836 9500 ft 158 kts 46°
2026-04-26 03:08 -34.71090 149.97816 9496 ft 158 kts 46°
2026-04-26 03:09 -34.70337 149.98797 9497 ft 158 kts 46°
2026-04-26 03:09 -34.69595 149.99764 9498 ft 158 kts 46°
2026-04-26 03:09 -34.68843 150.00743 9498 ft 158 kts 46°
2026-04-26 03:09 -34.68094 150.01719 9497 ft 158 kts 46°
2026-04-26 03:10 -34.67344 150.02694 9500 ft 158 kts 46°
2026-04-26 03:10 -34.66602 150.03662 9506 ft 158 kts 46°
2026-04-26 03:10 -34.65851 150.04637 9500 ft 158 kts 46°
2026-04-26 03:10 -34.65099 150.05614 9504 ft 157 kts 46°
2026-04-26 03:11 -34.64358 150.06579 9504 ft 158 kts 46°
2026-04-26 03:11 -34.63603 150.07562 9502 ft 158 kts 46°
2026-04-26 03:11 -34.62859 150.08527 9499 ft 158 kts 46°
2026-04-26 03:11 -34.62107 150.09505 9501 ft 158 kts 46°
2026-04-26 03:12 -34.61359 150.10477 9500 ft 158 kts 46°
2026-04-26 03:12 -34.60606 150.11454 9501 ft 158 kts 46°
2026-04-26 03:12 -34.59856 150.12426 9428 ft 163 kts 46°
2026-04-26 03:12 -34.59072 150.13445 9336 ft 167 kts 46°
2026-04-26 03:13 -34.58265 150.14492 9242 ft 172 kts 46°
2026-04-26 03:13 -34.57437 150.15567 9150 ft 176 kts 46°
2026-04-26 03:13 -34.56600 150.16651 9059 ft 179 kts 46°
2026-04-26 03:13 -34.55740 150.17766 8967 ft 182 kts 46°
2026-04-26 03:14 -34.54882 150.18879 8836 ft 185 kts 46°
2026-04-26 03:14 -34.53990 150.20034 8725 ft 188 kts 46°
2026-04-26 03:14 -34.53093 150.21196 8630 ft 189 kts 46°
2026-04-26 03:15 -34.52203 150.22348 8532 ft 190 kts 46°
2026-04-26 03:15 -34.51290 150.23532 8435 ft 190 kts 46°
2026-04-26 03:15 -34.50388 150.24694 8340 ft 191 kts 46°
2026-04-26 03:15 -34.49471 150.25880 8259 ft 191 kts 46°
2026-04-26 03:16 -34.48563 150.27058 8201 ft 191 kts 46°
2026-04-26 03:16 -34.47662 150.28222 8127 ft 192 kts 46°
2026-04-26 03:16 -34.46747 150.29402 8054 ft 191 kts 46°
2026-04-26 03:16 -34.45829 150.30587 7983 ft 192 kts 46°
2026-04-26 03:17 -34.44917 150.31764 7914 ft 192 kts 46°
2026-04-26 03:17 -34.44005 150.32941 7834 ft 193 kts 46°
2026-04-26 03:17 -34.43080 150.34135 7763 ft 193 kts 46°
2026-04-26 03:17 -34.42169 150.35309 7680 ft 194 kts 46°
2026-04-26 03:18 -34.41240 150.36506 7600 ft 195 kts 46°
2026-04-26 03:18 -34.40309 150.37708 7526 ft 195 kts 46°
2026-04-26 03:18 -34.39375 150.38913 7454 ft 195 kts 46°
2026-04-26 03:18 -34.38454 150.40096 7386 ft 196 kts 45°
2026-04-26 03:19 -34.37511 150.41309 7316 ft 197 kts 45°
2026-04-26 03:19 -34.36578 150.42507 7253 ft 198 kts 46°
2026-04-26 03:19 -34.35628 150.43741 7175 ft 200 kts 46°
2026-04-26 03:19 -34.34678 150.44968 7102 ft 199 kts 45°
2026-04-26 03:20 -34.33733 150.46166 7036 ft 199 kts 45°
2026-04-26 03:20 -34.32776 150.47395 6966 ft 201 kts 45°
2026-04-26 03:20 -34.31821 150.48624 6828 ft 204 kts 45°
2026-04-26 03:20 -34.30841 150.49882 6667 ft 206 kts 45°
2026-04-26 03:21 -34.29846 150.51160 6490 ft 209 kts 45°
2026-04-26 03:21 -34.28850 150.52444 6327 ft 211 kts 45°
2026-04-26 03:21 -34.27830 150.53751 6144 ft 213 kts 45°
2026-04-26 03:21 -34.26822 150.55046 5975 ft 212 kts 45°
2026-04-26 03:22 -34.25829 150.56312 5796 ft 203 kts 45°
2026-04-26 03:22 -34.24869 150.57542 5617 ft 199 kts 46°
2026-04-26 03:22 -34.23929 150.58749 5437 ft 198 kts 46°
2026-04-26 03:22 -34.22978 150.59964 5246 ft 199 kts 46°
2026-04-26 03:23 -34.22022 150.61188 5051 ft 200 kts 46°
2026-04-26 03:23 -34.21070 150.62411 4916 ft 198 kts 46°
2026-04-26 03:23 -34.20141 150.63598 4790 ft 196 kts 45°
2026-04-26 03:23 -34.19200 150.64797 4663 ft 194 kts 46°
2026-04-26 03:24 -34.18285 150.65969 4535 ft 193 kts 45°
2026-04-26 03:24 -34.17366 150.67143 4401 ft 190 kts 45°
2026-04-26 03:24 -34.16459 150.68309 4282 ft 190 kts 45°
2026-04-26 03:24 -34.15518 150.69429 4156 ft 189 kts 38°
2026-04-26 03:25 -34.14441 150.70342 4028 ft 189 kts 33°
2026-04-26 03:25 -34.13381 150.71239 3906 ft 188 kts 35°
2026-04-26 03:25 -34.12333 150.72187 3788 ft 187 kts 36°
2026-04-26 03:25 -34.11290 150.73136 3650 ft 188 kts 35°
2026-04-26 03:26 -34.10250 150.74081 3475 ft 190 kts 36°
2026-04-26 03:26 -34.09187 150.75045 3310 ft 191 kts 35°
2026-04-26 03:26 -34.08109 150.76014 3131 ft 192 kts 35°
2026-04-26 03:26 -34.07052 150.76971 2946 ft 189 kts 36°
2026-04-26 03:27 -34.06014 150.77910 2683 ft 182 kts 35°
2026-04-26 03:27 -34.05059 150.78782 2500 ft 162 kts 34°
2026-04-26 03:27 -34.04135 150.79604 2419 ft 169 kts 34°
2026-04-26 03:27 -34.03194 150.80456 2347 ft 172 kts 34°
2026-04-26 03:28 -34.02226 150.81334 2275 ft 174 kts 35°
2026-04-26 03:28 -34.01268 150.82206 2195 ft 173 kts 35°
2026-04-26 03:28 -34.00302 150.83073 2083 ft 171 kts 34°
2026-04-26 03:28 -33.99345 150.83929 1993 ft 172 kts 35°
2026-04-26 03:29 -33.98395 150.84789 1888 ft 172 kts 36°
2026-04-26 03:29 -33.97436 150.85669 1792 ft 174 kts 35°
2026-04-26 03:29 -33.96506 150.86529 1693 ft 172 kts 37°
2026-04-26 03:29 -33.95594 150.87472 1583 ft 172 kts 40°
2026-04-26 03:30 -33.94732 150.88455 1508 ft 170 kts 42°
2026-04-26 03:30 -33.93986 150.89541 1496 ft 167 kts 57°
2026-04-26 03:30 -33.93434 150.90745 1493 ft 159 kts 58°
2026-04-26 03:30 -33.92914 150.91882 1490 ft 155 kts 58°
2026-04-26 03:31 -33.92562 150.92622 1493 ft 152 kts 57°
2026-04-26 03:31 -33.92042 150.93710 1500 ft 146 kts 57°
2026-04-26 03:31 -33.91539 150.94759 1509 ft 142 kts 56°
2026-04-26 03:31 -33.90883 150.95615 1513 ft 140 kts 37°
2026-04-26 03:32 -33.90106 150.96336 1491 ft 139 kts 36°
2026-04-26 03:32 -33.89363 150.97022 1510 ft 133 kts 36°
2026-04-26 03:32 -33.88761 150.97813 1512 ft 130 kts 67°
2026-04-26 03:32 -33.88911 150.98862 1503 ft 134 kts 118°
2026-04-26 03:33 -33.89444 150.99779 1502 ft 131 kts 121°
2026-04-26 03:33 -33.89953 151.00676 1498 ft 129 kts 120°
2026-04-26 03:33 -33.90463 151.01572 1492 ft 128 kts 121°
2026-04-26 03:33 -33.90970 151.02422 1499 ft 123 kts 129°
2026-04-26 03:34 -33.91717 151.02720 1492 ft 111 kts 196°
2026-04-26 03:34 -33.92360 151.02283 1490 ft 109 kts 213°
2026-04-26 03:34 -33.93043 151.01759 1237 ft 115 kts 216°
2026-04-26 03:34 -33.93668 151.01233 982 ft 105 kts 190°
2026-04-26 03:35 -33.93487 151.01478 406 ft 103 kts 316°
2026-04-26 03:35 -33.93306 151.00750 339 ft 86 kts 293°
2026-04-26 03:35 -33.92957 151.00130 188 ft 90 kts 310°
2026-04-26 03:35 -33.92616 150.99531 43 ft 80 kts 311°
2026-04-26 03:36 -33.92419 150.99183 31 ft 42 kts 304°